N9XP-9 Weather Reports


Display with metric or nautical units.
time (UTC)temp
F
wind
direction
speed
MPH
gust
MPH
rain 1hr
in
rain 24hr
in
rain mn
in
humidity
%
barometer
mb
20260831004646 72 38 0.0 0.0 0.00 0.25 0.25 94 1014.4
20260831003047 73 29 0.0 1.0 0.00 0.25 0.25 93 1014.2
20260831001545 73 105 0.0 2.0 0.00 0.25 0.25 93 1014.3
20260831000045 73 129 0.0 4.0 0.00 0.25 0.25 93 1014.7
20260830234548 73 139 0.0 3.0 0.00 0.25 0.25 93 1014.9
20260830233043 73 117 0.0 3.0 0.00 0.25 0.25 93 1014.7
20260830231556 73 112 0.0 1.0 0.01 0.25 0.25 92 1014.9
20260830230048 73 130 0.0 1.0 0.01 0.25 0.25 92 1014.8
20260830224550 73 136 0.0 2.0 0.02 0.25 0.25 92 1015.0
20260830223040 73 134 0.0 2.0 0.01 0.24 0.24 91 1015.3
20260830221541 74 167 0.0 1.0 0.01 0.24 0.24 91 1015.3
20260830220039 74 129 0.0 1.0 0.01 0.24 0.24 91 1015.2
20260830214539 74 133 0.0 1.0 0.00 0.23 0.23 90 1014.9
20260830213039 74 162 0.0 1.0 0.00 0.23 0.23 90 1015.2
20260830211538 74 153 0.0 2.0 0.00 0.23 0.23 90 1015.3
20260830210037 74 176 0.0 2.0 0.01 0.23 0.23 89 1015.3
20260830204538 74 162 0.0 3.0 0.03 0.23 0.23 90 1015.3
20260830203038 73 172 0.0 3.0 0.04 0.23 0.23 90 1015.3
20260830201541 73 170 1.0 5.0 0.04 0.23 0.23 89 1015.2
20260830200034 73 152 2.0 7.0 0.04 0.22 0.22 88 1015.2
20260830194534 74 165 2.0 6.0 0.04 0.20 0.20 85 1015.4
20260830193041 75 157 0.0 1.0 0.03 0.19 0.19 87 1015.4
20260830191533 76 136 0.0 1.0 0.03 0.19 0.19 86 1015.2
20260830190032 79 15 0.0 2.0 0.01 0.17 0.17 74 1015.3
20260830184531 81 17 0.0 7.0 0.00 0.16 0.16 70 1014.9
20260830183029 80 131 3.0 11.0 0.00 0.16 0.16 69 1014.4
20260830181529 81 173 4.0 10.0 0.00 0.16 0.16 67 1014.1
20260830180044 81 141 6.0 13.0 0.00 0.16 0.16 67 1013.9
20260830174523 80 185 6.0 14.0 0.00 0.16 0.16 68 1014.1
20260830173021 78 123 2.0 10.0 0.00 0.16 0.16 71 1014.4
20260830171519 79 148 3.0 10.0 0.00 0.16 0.16 69 1014.7
20260830170016 78 142 5.0 13.0 0.00 0.16 0.16 71 1014.8
20260830164514 77 100 5.0 12.0 0.00 0.16 0.16 73 1014.6
20260830163020 77 129 2.0 10.0 0.00 0.16 0.16 75 1014.6
20260830161512 76 157 2.0 10.0 0.00 0.16 0.16 76 1014.6
20260830160012 76 144 2.0 12.0 0.00 0.16 0.16 77 1014.5
20260830154509 76 150 3.0 8.0 0.00 0.16 0.16 76 1014.7
20260830153005 75 165 2.0 6.0 0.00 0.16 0.16 81 1014.6
20260830151502 74 175 2.0 8.0 0.00 0.16 0.16 83 1014.6
20260830150058 73 139 3.0 8.0 0.00 0.16 0.16 85 1014.2
20260830144658 71 131 4.0 11.0 0.00 0.16 0.16 88 1014.5
20260830143103 69 165 1.0 9.0 0.00 0.16 0.16 91 1014.6
20260830141601 69 183 3.0 9.0 0.00 0.16 0.16 91 1014.9
20260830140055 68 145 4.0 8.0 0.00 0.16 0.16 93 1014.8
20260830134555 67 127 1.0 6.0 0.07 0.16 0.16 94 1015.0
20260830133105 67 177 1.0 7.0 0.08 0.16 0.16 94 1015.3
20260830131555 67 156 0.0 4.0 0.10 0.16 0.16 95 1015.6
20260830130053 66 171 1.0 4.0 0.12 0.16 0.16 94 1015.8
20260830124613 66 136 0.0 3.0 0.07 0.09 0.09 94 1016.1
20260830123055 66 155 0.0 2.0 0.07 0.08 0.08 93 1016.4
20260830121550 67 143 0.0 2.0 0.06 0.06 0.06 92 1016.1
20260830120047 67 131 0.0 3.0 0.04 0.04 0.04 90 1016.0
20260830114556 68 163 0.0 4.0 0.02 0.02 0.02 88 1015.7
20260830113041 69 155 1.0 4.0 0.01 0.01 0.01 84 1015.5
20260830111540 69 184 1.0 5.0 0.00 0.00 0.00 82 1015.3
20260830110038 70 164 0.0 4.0 0.00 0.00 0.00 82 1015.1
20260830104542 70 159 1.0 6.0 0.00 0.00 0.00 80 1014.7
20260830103035 70 141 1.0 6.0 0.00 0.00 0.00 78 1014.5
20260830101533 71 126 0.0 6.0 0.00 0.00 0.00 77 1014.4
20260830100033 70 141 2.0 6.0 0.00 0.00 0.00 77 1014.4
20260830094535 70 120 1.0 6.0 0.00 0.00 0.00 76 1014.3
20260830093033 71 125 3.0 9.0 0.00 0.00 0.00 75 1014.3
20260830091529 71 139 1.0 6.0 0.00 0.00 0.00 75 1014.4
20260830090033 71 172 2.0 7.0 0.00 0.00 0.00 74 1014.5
20260830084525 71 174 2.0 6.0 0.00 0.00 0.00 73 1014.7
20260830083025 71 154 2.0 7.0 0.00 0.00 0.00 73 1014.6
20260830081530 71 167 2.0 6.0 0.00 0.00 0.00 72 1014.9
20260830080021 71 204 0.0 8.0 0.00 0.00 0.00 72 1015.0
20260830074520 71 151 1.0 6.0 0.00 0.00 0.00 72 1015.1
20260830073023 71 148 1.0 9.0 0.00 0.00 0.00 72 1015.2
20260830071518 71 134 3.0 8.0 0.00 0.00 0.00 72 1015.1
20260830070017 71 150 3.0 9.0 0.00 0.00 0.00 72 1015.2
20260830064614 71 134 1.0 6.0 0.00 0.00 0.00 72 1015.1
20260830063012 72 172 2.0 7.0 0.00 0.00 0.00 72 1015.5
20260830061519 72 141 1.0 5.0 0.00 0.00 0.00 71 1015.5
20260830060015 73 159 1.0 7.0 0.00 0.00 0.00 71 1015.7
20260830054511 73 126 2.0 6.0 0.00 0.00 0.00 70 1015.6
20260830053007 73 158 2.0 6.0 0.00 0.00 0.00 70 1015.8
20260830051505 73 158 2.0 7.0 0.00 0.00 0.00 70 1015.7
20260830050002 73 166 2.0 7.0 0.00 0.00 0.00 71 1015.5
20260830044602 73 114 1.0 7.0 0.00 0.00 0.00 72 1015.6
20260830043104 72 155 2.0 6.0 0.00 0.00 0.00 74 1015.8
20260830041604 72 138 0.0 4.0 0.00 0.00 0.00 77 1015.8
20260830040106 71 51 1.0 6.0 0.00 0.00 0.00 78 1016.0
20260830034600 71 153 1.0 4.0 0.00 0.00 0.00 79 1016.0
20260830033058 72 125 1.0 5.0 0.00 0.00 0.00 79 1016.1
20260830031610 72 89 1.0 7.0 0.00 0.00 0.00 79 1016.0
20260830030055 72 146 0.0 4.0 0.00 0.00 0.00 79 1016.0
20260830024553 72 131 1.0 7.0 0.00 0.00 0.00 79 1016.0
20260830023105 72 157 1.0 6.0 0.00 0.00 0.00 79 1016.1
20260830021553 72 147 1.0 4.0 0.00 0.00 0.00 79 1016.1
20260830020052 72 122 0.0 5.0 0.00 0.00 0.00 79 1016.2
20260830014552 72 148 0.0 4.0 0.00 0.00 0.00 79 1016.3
20260830013051 72 132 0.0 3.0 0.00 0.00 0.00 78 1016.2
20260830011559 72 147 0.0 2.0 0.00 0.00 0.00 78 1016.3